This is the latest recevied weather packets stored in our database for station/object KA3RQR. If no packets are shown the sender has not sent any weather packets the latest 10 day(s).
| Time | Temp. | Humidity | Pressure | Rain* | Wind** | Luminosity | Snow |
|---|---|---|---|---|---|---|---|
| 1778165256 | 12.22° C | 69% | 1012.9 hPa | 0 mm | - | 89 W/m² | - |
| 1778164953 | 12.22° C | 71% | 1012.7 hPa | 0 mm | - | 98 W/m² | - |
| 1778164649 | 12.22° C | 71% | 1013.1 hPa | 0 mm | - | 97 W/m² | - |
| 1778164347 | 12.22° C | 73% | 1013 hPa | 0 mm | - | 71 W/m² | - |
| 1778164043 | 11.67° C | 73% | 1012.8 hPa | 0 mm | - | 62 W/m² | - |
| 1778163739 | 11.67° C | 73% | 1013 hPa | 0 mm | - | 65 W/m² | - |
| 1778163435 | 11.67° C | 73% | 1013.1 hPa | 0 mm | - | 46 W/m² | - |
| 1778163133 | 11.67° C | 74% | 1012.9 hPa | 0 mm | - | 44 W/m² | - |
| 1778162829 | 11.67° C | 73% | 1013 hPa | 0 mm | - | 37 W/m² | - |
| 1778162527 | 11.67° C | 72% | 1013.2 hPa | 0 mm | - | 33 W/m² | - |
| 1778162223 | 11.67° C | 74% | 1013.3 hPa | 0 mm | - | 26 W/m² | - |
| 1778161921 | 11.67° C | 73% | 1013 hPa | 0 mm | - | 30 W/m² | - |
| 1778161617 | 11.67° C | 71% | 1013.3 hPa | 0 mm | - | 23 W/m² | - |
| 1778161313 | 11.67° C | 75% | 1013.3 hPa | 0 mm | - | 40 W/m² | - |
| 1778161009 | 11.67° C | 75% | 1013.4 hPa | 0 mm | - | 45 W/m² | - |
| 1778160707 | 11.67° C | 74% | 1013.5 hPa | 0 mm | - | 55 W/m² | - |
| 1778160404 | 11.67° C | 73% | 1013.4 hPa | 0 mm | - | 38 W/m² | - |
| 1778160100 | 11.67° C | 78% | 1013.3 hPa | 0 mm | - | 40 W/m² | - |
| 1778159797 | 11.67° C | 80% | 1013.1 hPa | 0 mm | - | 45 W/m² | - |
| 1778159494 | 11.67° C | 83% | 1012.9 hPa | 0 mm | - | 40 W/m² | - |
| 1778159191 | 11.67° C | 82% | 1013.3 hPa | 0 mm | - | 37 W/m² | - |
| 1778158889 | 11.67° C | 81% | 1013.1 hPa | 0 mm | - | 33 W/m² | - |
| 1778158588 | 11.67° C | 81% | 1013 hPa | 0 mm | - | 32 W/m² | - |
| 1778158285 | 11.67° C | 81% | 1013 hPa | 0 mm | - | 34 W/m² | - |
| 1778157980 | 11.67° C | 81% | 1013.1 hPa | 0 mm | - | 37 W/m² | - |
* Rain latest hour (hover to see other rain measurements)
** Current wind speed in m/s (hover to see current wind gust speed)